FW8380 Weather Reports


time (UTC)temp
F
wind
direction
speed
knots
gust
knots
rain 1hr
in
rain 24hr
in
rain mn
in
humidity
%
barometer
mb
20260509035039 72 0 0.0 0.9 0.00 0.00 0.00 66 1011.7
20260509034549 72 0 0.0 0.9 0.00 0.00 0.00 66 1011.6
20260509034039 73 0 0.0 0.9 0.00 0.00 0.00 65 1011.6
20260509033542 73 0 0.0 2.6 0.00 0.00 0.00 64 1011.6
20260509033050 73 0 0.0 2.6 0.00 0.00 0.00 63 1011.6
20260509032539 74 338 0.0 0.9 0.00 0.00 0.00 63 1011.5
20260509032040 74 352 0.0 0.9 0.00 0.00 0.00 62 1011.5
20260509031557 74 0 0.0 0.0 0.00 0.00 0.00 61 1011.4
20260509031042 75 0 0.0 0.0 0.00 0.00 0.00 60 1011.4
20260509030539 75 0 0.0 0.9 0.00 0.00 0.00 59 1011.3
20260509030110 76 0 0.0 0.9 0.00 0.00 0.00 58 1011.3
20260509025539 76 0 0.0 0.9 0.00 0.00 0.00 57 1011.3
20260509025042 77 0 0.0 3.5 0.00 0.00 0.00 56 1011.3
20260509024546 77 0 0.0 3.5 0.00 0.00 0.00 55 1011.3
20260509024040 77 0 0.0 2.6 0.00 0.00 0.00 55 1011.2
20260509023540 78 0 0.9 2.6 0.00 0.00 0.00 54 1011.2
20260509023045 78 352 0.0 2.6 0.00 0.00 0.00 53 1011.2
20260509022539 78 0 0.9 4.3 0.00 0.00 0.00 52 1011.1
20260509022039 78 0 0.0 4.3 0.00 0.00 0.00 51 1011.1
20260509021546 79 0 0.9 4.3 0.00 0.00 0.00 50 1011.1
20260509021042 79 0 0.0 6.1 0.00 0.00 0.00 49 1011.1
20260509020538 79 0 0.0 6.1 0.00 0.00 0.00 49 1011.1
20260509020055 79 349 0.0 7.0 0.00 0.00 0.00 48 1011.2
20260509015540 79 32 0.0 7.0 0.00 0.00 0.00 47 1011.2
20260509015039 80 7 0.0 3.5 0.00 0.00 0.00 47 1011.3
20260509014548 80 27 0.0 5.2 0.00 0.00 0.00 46 1011.3
20260509014040 80 62 0.9 5.2 0.00 0.00 0.00 46 1011.3
20260509013542 80 15 0.0 5.2 0.00 0.00 0.00 45 1011.3
20260509013058 80 16 0.0 5.2 0.00 0.00 0.00 45 1011.3
20260509012542 81 338 0.0 5.2 0.00 0.00 0.00 44 1011.2
20260509012039 81 0 0.9 5.2 0.00 0.00 0.00 43 1011.3
20260509011555 82 321 0.0 4.3 0.00 0.00 0.00 43 1011.3
20260509011043 81 347 0.0 3.5 0.00 0.00 0.00 43 1011.4
20260509010540 82 0 0.0 4.3 0.00 0.00 0.00 42 1011.4
20260509010052 82 338 0.0 4.3 0.00 0.00 0.00 41 1011.4
20260509005542 82 0 0.0 3.5 0.00 0.00 0.00 40 1011.3
20260509005041 82 101 0.0 4.3 0.00 0.00 0.00 39 1011.4
20260509004557 82 0 0.9 7.0 0.00 0.00 0.00 40 1011.4
20260509004039 82 0 0.9 7.0 0.00 0.00 0.00 40 1011.3
20260509003542 82 347 0.9 7.0 0.00 0.00 0.00 39 1011.4
20260509003055 82 344 0.9 6.1 0.00 0.00 0.00 38 1011.6
20260509002539 82 350 0.9 6.1 0.00 0.00 0.00 39 1011.5
20260509002042 82 347 1.7 7.8 0.00 0.00 0.00 37 1011.6
20260509001551 83 356 0.9 7.8 0.00 0.00 0.00 38 1011.8
20260509001039 83 229 0.0 7.8 0.00 0.00 0.00 38 1011.7
20260509000542 83 0 0.9 7.8 0.00 0.00 0.00 38 1011.7
20260509000054 82 338 1.7 7.0 0.00 0.00 0.00 37 1011.7
20260508235542 83 352 2.6 6.1 0.00 0.00 0.00 38 1011.7
20260508235041 83 20 0.9 7.0 0.00 0.00 0.00 36 1011.8
20260508234557 83 149 0.9 7.0 0.00 0.00 0.00 40 1011.7
20260508234042 83 77 0.0 7.8 0.00 0.00 0.00 39 1011.9
20260508233544 83 0 1.7 7.8 0.00 0.00 0.00 40 1011.8
20260508233058 83 15 2.6 7.0 0.00 0.00 0.00 38 1011.8
20260508232546 83 8 0.9 8.7 0.00 0.00 0.00 39 1012.0
20260508232043 83 158 1.7 8.7 0.00 0.00 0.00 39 1011.9
20260508231552 83 352 2.6 7.8 0.00 0.00 0.00 39 1012.0
20260508231043 83 195 1.7 7.0 0.00 0.00 0.00 42 1011.9
20260508230550 83 354 0.9 8.7 0.00 0.00 0.00 43 1011.9
20260508230051 83 0 1.7 8.7 0.00 0.00 0.00 43 1012.1
20260508225541 83 25 2.6 7.0 0.00 0.00 0.00 43 1012.1
20260508225046 83 342 2.6 7.8 0.00 0.00 0.00 42 1012.1
20260508224615 84 345 1.7 7.8 0.00 0.00 0.00 41 1012.2
20260508224039 85 0 0.9 5.2 0.00 0.00 0.00 41 1012.2
20260508223539 85 0 0.9 5.2 0.00 0.00 0.00 38 1012.4
20260508223053 85 235 0.0 6.1 0.00 0.00 0.00 39 1012.4
20260508222538 85 349 0.9 6.1 0.00 0.00 0.00 39 1012.5
20260508222038 85 0 0.9 5.2 0.00 0.00 0.00 37 1012.5
20260508221548 85 0 0.9 5.2 0.00 0.00 0.00 38 1012.7
20260508221039 85 0 0.0 5.2 0.00 0.00 0.00 38 1012.7
20260508220539 84 0 0.0 5.2 0.00 0.00 0.00 41 1012.8
20260508220057 84 338 0.9 6.1 0.00 0.00 0.00 39 1012.8
20260508215538 85 222 0.9 6.1 0.00 0.00 0.00 39 1012.9
20260508215038 84 0 0.0 3.5 0.00 0.00 0.00 40 1013.0
20260508214553 84 0 0.0 7.8 0.00 0.00 0.00 40 1013.0
20260508214038 84 0 0.0 7.8 0.00 0.00 0.00 40 1013.0
20260508213539 85 0 1.7 7.8 0.00 0.00 0.00 38 1013.1
20260508213048 85 0 0.0 3.5 0.00 0.00 0.00 39 1013.1
20260508212539 85 0 0.0 3.5 0.00 0.00 0.00 39 1013.1
20260508212038 85 0 0.0 4.3 0.00 0.00 0.00 40 1013.2
20260508211553 85 0 0.9 5.2 0.00 0.00 0.00 39 1013.2
20260508211039 84 0 0.0 5.2 0.00 0.00 0.00 39 1013.3
20260508210539 85 352 0.0 3.5 0.00 0.00 0.00 39 1013.4
20260508210055 85 0 0.0 4.3 0.00 0.00 0.00 40 1013.5
20260508205543 84 219 0.0 4.3 0.00 0.00 0.00 40 1013.4
20260508205039 85 0 0.0 4.3 0.00 0.00 0.00 40 1013.5
20260508204552 84 0 0.0 2.6 0.00 0.00 0.00 41 1013.5
20260508204039 85 0 0.0 5.2 0.00 0.00 0.00 41 1013.4
20260508203538 84 0 0.0 5.2 0.00 0.00 0.00 41 1013.4
20260508203101 83 232 0.9 4.3 0.00 0.00 0.00 40 1013.5
20260508202539 83 0 0.0 7.0 0.00 0.00 0.00 41 1013.5
20260508202039 84 0 0.9 7.0 0.00 0.00 0.00 40 1013.5
20260508201557 84 0 0.0 3.5 0.00 0.00 0.00 41 1013.5
20260508201040 83 0 0.0 5.2 0.00 0.00 0.00 42 1013.5
20260508200539 83 229 0.0 5.2 0.00 0.00 0.00 42 1013.7
20260508200049 84 220 0.9 5.2 0.00 0.00 0.00 42 1013.6
20260508195541 84 0 0.0 3.5 0.00 0.00 0.00 44 1013.7
20260508195039 84 0 0.0 5.2 0.00 0.00 0.00 45 1013.8
20260508194548 83 346 0.0 5.2 0.00 0.00 0.00 45 1013.8
20260508194043 83 0 0.0 4.3 0.00 0.00 0.00 46 1013.9
20260508193541 83 207 0.9 4.3 0.00 0.00 0.00 46 1013.9
20260508193052 83 225 0.9 4.3 0.00 0.00 0.00 48 1013.9
20260508192555 82 242 1.7 3.5 0.00 0.00 0.00 48 1013.9
20260508192041 82 207 0.9 3.5 0.00 0.00 0.00 50 1014.0
20260508191552 82 193 0.9 3.5 0.00 0.00 0.00 49 1014.0
20260508191044 82 224 0.0 3.5 0.00 0.00 0.00 49 1014.0
20260508190540 81 211 0.9 2.6 0.00 0.00 0.00 51 1014.1
20260508190048 81 0 0.9 2.6 0.00 0.00 0.00 51 1014.1
20260508185543 80 132 0.0 3.5 0.00 0.00 0.00 53 1014.1
20260508185040 79 245 0.0 4.3 0.00 0.00 0.00 54 1014.3
20260508184553 79 214 0.9 4.3 0.00 0.00 0.00 56 1014.3
20260508184040 78 0 0.0 5.2 0.00 0.00 0.00 56 1014.2
20260508183540 78 258 0.9 5.2 0.00 0.00 0.00 56 1014.4
20260508183048 78 162 1.7 5.2 0.00 0.00 0.00 55 1014.4
20260508182542 78 269 0.9 3.5 0.00 0.00 0.00 55 1014.5
20260508182040 78 167 0.0 3.5 0.00 0.00 0.00 55 1014.6
20260508181556 78 198 0.9 3.5 0.00 0.00 0.00 55 1014.5
20260508181041 78 188 0.9 3.5 0.00 0.00 0.00 55 1014.5
20260508180540 78 0 0.0 3.5 0.00 0.00 0.00 55 1014.5
20260508180052 78 158 0.0 3.5 0.00 0.00 0.00 56 1014.6
20260508175540 78 0 0.0 2.6 0.00 0.00 0.00 55 1014.6
20260508175040 78 193 0.0 2.6 0.00 0.00 0.00 56 1014.6
20260508174556 78 0 0.9 2.6 0.00 0.00 0.00 55 1014.7
20260508174041 78 143 0.0 1.7 0.00 0.00 0.00 56 1014.6
20260508173541 78 0 0.0 1.7 0.00 0.00 0.00 57 1014.6
20260508173053 77 0 0.0 2.6 0.00 0.00 0.00 57 1014.6
20260508172540 77 0 0.0 2.6 0.00 0.00 0.00 58 1014.7
20260508172041 76 195 0.0 2.6 0.00 0.00 0.00 59 1014.6
20260508171551 76 176 0.0 2.6 0.00 0.00 0.00 58 1014.7
20260508171042 76 166 0.0 1.7 0.00 0.00 0.00 60 1014.7
20260508170540 75 0 0.0 0.0 0.00 0.00 0.00 60 1014.7
20260508170049 75 0 0.0 0.0 0.00 0.00 0.00 60 1014.6
20260508165540 74 0 0.0 0.0 0.00 0.00 0.00 61 1014.6
20260508165040 74 0 0.0 0.0 0.00 0.00 0.00 63 1014.6
20260508164553 73 0 0.0 0.0 0.00 0.00 0.00 63 1014.7
20260508164041 73 0 0.0 0.0 0.00 0.00 0.00 63 1014.6
20260508163544 73 0 0.0 0.0 0.00 0.00 0.00 63 1014.7
20260508163050 72 0 0.0 0.0 0.00 0.00 0.00 63 1014.8
20260508162541 72 0 0.0 0.0 0.00 0.00 0.00 63 1014.9
20260508162110 72 0 0.0 0.0 0.00 0.00 0.00 64 1014.8
20260508161556 72 0 0.0 0.0 0.00 0.00 0.00 64 1014.8
20260508161041 72 0 0.0 0.0 0.00 0.00 0.00 64 1014.7
20260508160541 72 0 0.0 0.0 0.00 0.00 0.00 65 1014.7
20260508160049 70 0 0.0 0.0 0.00 0.00 0.00 68 1014.7
20260508155540 69 0 0.0 0.0 0.00 0.00 0.00 69 1014.7
20260508155042 68 0 0.0 0.0 0.00 0.00 0.00 72 1014.6
20260508154608 66 0 0.0 0.0 0.00 0.00 0.00 73 1014.7
20260508154040 65 0 0.0 0.0 0.00 0.00 0.00 75 1014.7
20260508153540 64 0 0.0 0.0 0.00 0.00 0.00 76 1014.9
20260508153051 64 0 0.0 0.9 0.00 0.00 0.00 77 1014.9
20260508152544 63 0 0.0 0.9 0.00 0.00 0.00 77 1014.7
20260508152041 63 0 0.0 0.9 0.00 0.00 0.00 78 1014.7
20260508151554 62 0 0.0 0.9 0.00 0.00 0.00 78 1014.7
20260508151041 62 0 0.0 0.9 0.00 0.00 0.00 79 1014.8
20260508150540 61 0 0.0 0.9 0.00 0.00 0.00 80 1014.8
20260508150059 61 0 0.0 1.7 0.00 0.00 0.00 81 1014.9
20260508145542 60 12 0.0 1.7 0.00 0.00 0.00 80 1014.8
20260508145040 60 0 0.0 1.7 0.00 0.00 0.00 80 1014.7
20260508144548 59 0 0.0 1.7 0.00 0.00 0.00 81 1014.7
20260508144043 59 340 0.0 0.9 0.00 0.00 0.00 82 1014.7
20260508143542 58 0 0.0 0.9 0.00 0.00 0.00 83 1014.7
20260508143106 57 0 0.0 1.7 0.00 0.00 0.00 84 1014.7
20260508142540 57 0 0.0 1.7 0.00 0.00 0.00 86 1014.6
20260508142041 56 0 0.0 0.9 0.00 0.00 0.00 87 1014.6
20260508141549 56 0 0.0 0.0 0.00 0.00 0.00 88 1014.6
20260508141040 54 0 0.0 0.0 0.00 0.00 0.00 91 1014.6
20260508140541 53 0 0.0 0.0 0.00 0.00 0.00 92 1014.7
20260508135541 52 0 0.0 0.0 0.00 0.00 0.00 93 1014.5
20260508135041 52 0 0.0 0.0 0.00 0.00 0.00 93 1014.6
20260508134555 52 0 0.0 0.0 0.00 0.00 0.00 93 1014.4
20260508134041 52 0 0.0 0.0 0.00 0.00 0.00 93 1014.4
20260508133541 52 0 0.0 0.0 0.00 0.00 0.00 93 1014.2
20260508133105 52 0 0.0 0.0 0.00 0.00 0.00 92 1014.3
20260508132540 52 0 0.0 0.0 0.00 0.00 0.00 92 1014.3
20260508132041 52 0 0.0 0.0 0.00 0.00 0.00 92 1014.3
20260508131600 52 0 0.0 0.0 0.00 0.00 0.00 92 1014.3
20260508131040 52 0 0.0 0.0 0.00 0.00 0.00 93 1014.4
20260508130539 52 0 0.0 0.0 0.00 0.00 0.00 93 1014.3
20260508130054 52 0 0.0 0.0 0.00 0.00 0.00 93 1014.2
20260508125538 52 0 0.0 0.0 0.00 0.00 0.00 93 1014.2
20260508125040 52 0 0.0 0.0 0.00 0.00 0.00 93 1014.2
20260508124554 52 0 0.0 0.0 0.00 0.00 0.00 93 1014.2
20260508124039 52 0 0.0 0.0 0.00 0.00 0.00 93 1014.2
20260508123540 52 0 0.0 0.0 0.00 0.00 0.00 93 1014.2
20260508123053 52 0 0.0 0.0 0.00 0.00 0.00 93 1014.2
20260508122539 52 0 0.0 0.0 0.00 0.00 0.00 93 1014.2
20260508122037 53 0 0.0 0.0 0.00 0.00 0.00 93 1014.1
20260508121549 53 0 0.0 0.0 0.00 0.00 0.00 92 1014.2
20260508121042 53 0 0.0 0.0 0.00 0.00 0.00 92 1014.1
20260508120539 53 0 0.0 0.0 0.00 0.00 0.00 92 1014.2
20260508120058 53 0 0.0 0.0 0.00 0.00 0.00 92 1014.2
20260508115538 53 0 0.0 0.9 0.00 0.00 0.00 92 1014.1
20260508115039 54 0 0.0 0.9 0.00 0.00 0.00 92 1014.1
20260508114548 54 344 0.0 0.0 0.00 0.00 0.00 92 1014.0
20260508114040 54 0 0.0 0.9 0.00 0.00 0.00 92 1014.0
20260508113542 54 0 0.0 0.9 0.00 0.00 0.00 92 1013.9
20260508113049 54 0 0.0 0.9 0.00 0.00 0.00 91 1013.9
20260508112539 54 0 0.0 0.0 0.00 0.00 0.00 90 1013.9
20260508112040 55 0 0.0 0.0 0.00 0.00 0.00 90 1013.8
20260508111601 55 0 0.0 0.0 0.00 0.00 0.00 90 1013.8
20260508111040 55 0 0.0 0.0 0.00 0.00 0.00 90 1013.8
20260508110541 55 0 0.0 0.9 0.00 0.00 0.00 91 1013.8
20260508110048 55 0 0.0 0.9 0.00 0.00 0.00 91 1013.8
20260508105537 55 0 0.0 0.9 0.00 0.00 0.00 90 1013.9
20260508105040 55 0 0.0 0.9 0.00 0.00 0.00 90 1014.0
20260508104549 55 0 0.0 0.0 0.00 0.00 0.00 90 1013.9
20260508104040 55 0 0.0 0.0 0.00 0.00 0.00 89 1013.8
20260508103540 55 0 0.0 0.0 0.00 0.00 0.00 89 1013.9
20260508103053 55 0 0.0 0.0 0.00 0.00 0.00 90 1013.9
20260508102539 56 0 0.0 0.0 0.00 0.00 0.00 89 1014.0
20260508102040 56 0 0.0 0.0 0.00 0.00 0.00 89 1014.0
20260508101550 56 0 0.0 0.0 0.00 0.00 0.00 89 1013.9
20260508101040 56 0 0.0 0.0 0.00 0.00 0.00 89 1014.0
20260508100539 56 0 0.0 0.0 0.00 0.00 0.00 88 1014.0
20260508100046 56 0 0.0 0.0 0.00 0.00 0.00 88 1014.0
20260508095540 56 0 0.0 0.0 0.00 0.00 0.00 88 1014.0
20260508095040 57 0 0.0 0.0 0.00 0.00 0.00 88 1013.9
20260508094552 57 0 0.0 0.0 0.00 0.00 0.00 87 1014.0
20260508094039 57 0 0.0 0.0 0.00 0.00 0.00 87 1014.0
20260508093544 57 0 0.0 0.0 0.00 0.00 0.00 87 1013.9
20260508093051 58 0 0.0 0.0 0.00 0.00 0.00 86 1013.9
20260508092539 58 0 0.0 0.0 0.00 0.00 0.00 85 1013.9
20260508092042 58 0 0.0 0.0 0.00 0.00 0.00 84 1013.8
20260508091601 58 0 0.0 0.0 0.00 0.00 0.00 84 1013.8
20260508091039 59 0 0.0 0.9 0.00 0.00 0.00 84 1013.9
20260508090540 59 0 0.0 0.9 0.00 0.00 0.00 84 1013.8
20260508090045 59 0 0.0 0.9 0.00 0.00 0.00 84 1013.9
20260508085540 59 0 0.0 0.9 0.00 0.00 0.00 85 1013.9
20260508085042 59 0 0.0 0.0 0.00 0.00 0.00 85 1013.8
20260508084557 59 0 0.0 0.0 0.00 0.00 0.00 84 1013.8
20260508084041 59 0 0.0 0.0 0.00 0.00 0.00 84 1013.8
20260508083540 59 0 0.0 0.0 0.00 0.00 0.00 84 1013.8
20260508083056 60 0 0.0 0.0 0.00 0.00 0.00 84 1013.9
20260508082536 60 0 0.0 0.0 0.00 0.00 0.00 84 1013.9
20260508082039 60 0 0.0 0.0 0.00 0.00 0.00 83 1013.8
20260508081549 60 0 0.0 0.0 0.00 0.00 0.00 84 1013.9
20260508081039 60 0 0.0 0.0 0.00 0.00 0.00 85 1013.8
20260508080546 60 0 0.0 0.0 0.00 0.00 0.00 84 1013.9
20260508080109 60 0 0.0 0.0 0.00 0.00 0.00 85 1013.8
20260508075542 61 0 0.0 0.0 0.00 0.00 0.00 84 1013.8
20260508075039 61 0 0.0 0.0 0.00 0.00 0.00 84 1013.8
20260508074549 61 0 0.0 0.0 0.00 0.00 0.00 84 1013.8
20260508074039 61 0 0.0 0.0 0.00 0.00 0.00 85 1013.8
20260508073540 61 0 0.0 0.9 0.00 0.00 0.00 84 1013.9
20260508073055 61 0 0.0 0.9 0.00 0.00 0.00 84 1013.9
20260508072539 62 0 0.0 0.0 0.00 0.00 0.00 84 1013.9
20260508072039 62 0 0.0 0.0 0.00 0.00 0.00 85 1013.8
20260508071548 62 0 0.0 0.0 0.00 0.00 0.00 85 1013.8
20260508071040 62 0 0.0 0.0 0.00 0.00 0.00 86 1013.8
20260508070536 63 0 0.0 0.0 0.00 0.00 0.00 85 1013.7
20260508070054 63 0 0.0 0.0 0.00 0.00 0.00 85 1013.7
20260508065542 63 0 0.0 0.0 0.00 0.00 0.00 86 1013.8
20260508065040 63 0 0.0 0.0 0.00 0.00 0.00 86 1013.8
20260508064556 63 0 0.0 0.0 0.00 0.00 0.00 86 1013.7
20260508064041 64 0 0.0 0.9 0.00 0.00 0.00 86 1013.8
20260508063541 64 0 0.0 0.9 0.00 0.00 0.00 86 1013.7
20260508063052 64 0 0.0 0.9 0.00 0.00 0.00 85 1013.6
20260508062540 64 0 0.0 0.9 0.00 0.00 0.00 85 1013.7
20260508062040 65 0 0.0 0.9 0.00 0.00 0.00 85 1013.6
20260508061553 65 0 0.0 0.9 0.00 0.00 0.00 84 1013.6
20260508061043 65 0 0.0 0.9 0.00 0.00 0.00 84 1013.6
20260508060541 65 0 0.0 0.9 0.00 0.00 0.00 84 1013.6
20260508060058 65 0 0.0 0.9 0.00 0.00 0.00 84 1013.7
20260508055543 65 0 0.0 0.9 0.00 0.00 0.00 84 1013.7
20260508055040 65 0 0.0 0.9 0.00 0.00 0.00 84 1013.7
20260508054550 66 0 0.0 0.9 0.00 0.00 0.00 84 1013.7
20260508054042 66 0 0.0 0.9 0.00 0.00 0.00 84 1013.7
20260508053543 66 0 0.0 0.0 0.00 0.00 0.00 84 1013.8
20260508053100 66 0 0.0 0.0 0.00 0.00 0.00 83 1013.7
20260508052540 66 0 0.0 0.0 0.00 0.00 0.00 83 1013.8
20260508052040 67 0 0.0 0.0 0.00 0.00 0.00 82 1013.7
20260508051603 67 0 0.0 0.0 0.00 0.00 0.00 82 1013.7
20260508051040 67 0 0.0 0.0 0.00 0.00 0.00 81 1013.7
20260508050540 68 0 0.0 0.0 0.00 0.00 0.00 81 1013.7
20260508050103 68 0 0.0 0.0 0.00 0.00 0.00 80 1013.7
20260508045540 68 0 0.0 0.0 0.00 0.00 0.00 79 1013.6
20260508045040 69 0 0.0 0.0 0.00 0.00 0.00 78 1013.7
20260508044555 69 0 0.0 0.0 0.00 0.00 0.00 78 1013.7
20260508044039 69 0 0.0 0.0 0.00 0.00 0.00 77 1013.6
20260508043541 70 0 0.0 0.0 0.00 0.00 0.00 76 1013.6
20260508043052 70 0 0.0 0.0 0.00 0.00 0.00 75 1013.6
20260508042541 71 0 0.0 0.0 0.00 0.00 0.00 75 1013.6
20260508042040 71 0 0.0 0.9 0.00 0.00 0.00 74 1013.4
20260508041558 72 0 0.0 3.5 0.00 0.00 0.00 73 1013.4
20260508041040 72 0 0.0 3.5 0.00 0.00 0.00 73 1013.3
20260508040542 72 0 0.0 0.9 0.00 0.00 0.00 73 1013.3
20260508040100 72 0 0.0 0.0 0.00 0.00 0.00 73 1013.4
20260508035612 72 0 0.0 0.0 0.00 0.00 0.00 72 1013.3
20260508035041 72 0 0.0 0.0 0.00 0.00 0.00 72 1013.1